EHI
0 0 0 0 0 0 0 0 0 0 0 0 0 0 0 0 0 0 0 0 0 0 0 0 0 0 0 0 0 0 0 0 0 0 0 0 0 0 0 0 0 0 0
0 0 0 0 0 0 0 0 0 0 0 0 0 0 0 0 0 0 0 0 0 0 0 0 0 0 0 0 0 0 0 0 0 0 0 0 0 0 0 0 0 0 0
0 0 0 0 0 0 0 0 0 0 0 0 0 0 0 0 0 0 0 0 0 0 0 0 0 0 0 0 0 0 0 0 0 0 0 0 0 0 0 0 0 0 0
0 0 0 0 0 0 0 0 0 0 0 0 0 0 0 0 0 0 0 0 0 0 0 0 0 0 0 0 0 0 0 0 0 0 0 0 0 0 0 0 0 0 0
0 0 0 0 0 0 0 0 0 0 0 0 0 0 0 0 0 0 0 0 0 0 0 0 0 0 0 0 0 0 0 0 0 0 0 0 0 0 0 0 0 0 0
0 0 0 0 0 0 0 0 0 0 0 0 0 0 0 0 0 0 0 0 0 0 0 0 0 0 0 0 0 0 0 0 0 0 0 0 0 0 0 0 0 0 0
0 0 0 0 0 0 0 0 0 0 0 0 0 0 0 0 0 0 0 0 0 0 0 0 0 0 0 0 0 0 0 0 0 0 0 0 0 0 0 0 0 0 0
0 0 0 0 0 0 0 0 0 0 0 0 0 0 0 0 0 0 0 0 0 0 0 0 0 0 0 0 0 0 0 0 0 0 0 0 0 0 0 0 0 0 0
0 0 0 0 0 0 0 0 0 0 0 0 0 0 0 0 0 0 0 0 0 0 0 0 0 0 0 0 0 0 0 0 0 0 0 0 0 0 0 0 0 0 0
0 0 0 0 0 0 0 0 0 0 0 0 0 0 0 0 0 0 0 0 0 0 0 0 0 0 0 0 0 0 0 0 0 0 0 0 0 0 0 0 0 0 0
0 0 0 0 0 0 0 0 0 0 0 0 0 0 0 0 0 0 0 0 0 0 0 0 0 0 0 0 0 0 0 0 0 0 0 0 0 0 0 0 0 0 0
0 0 0 0 0 0 0 0 0 0 0 0 0 0 0 0 0 0 0 0 0 0 0 0 0 0 0 0 0 0 0 0 0 0 0 0 0 0 0 0 0 0 0
0 0 0 0 0 0 0 0 0 0 0 0 0 0 0 0 0 0 0 0 0 0 0 0 0 0 0 0 0 0 0 0 0 0 0 0 0 0 0 0 0 0 0
0 0 0 0 0 0 0 0 0 0 0 0 0 0 0 0 0 0 0 0 0 0 0 0 0 0 0 0 0 0 0 0 0 0 0 0 0 0 0 0 0 0 0
0 0 0 0 0 0 0 0 0 0 0 0 0 0 0 0 0 0 0 0 0 0 0 0 0 0 0 0 0 0 0 0 0 0 0 0 0 0 0 0 0 0 0
0 0 0 0 0 0 0 0 0 0 0 0 0 0 0 0 0 0 0 0 0 0 0 0 0 0 0 0 0 0 0 0 0 0 0 0 0 0 0 0 0 0 0
0 0 0 0 0 0 0 0 0 0 0 0 0 0 0 0 0 0 0 0 0 0 0 0 0 0 0 0 0 0 0 0 0 0 0 0 0 0 0 0 0 0 0
0 0 0 0 0 0 0 0 0 0 0 0 0 0 0 0 0 0 0 0 0 0 0 0 0 0 0 0 0 0 0 0 0 0 0 0 0 0 0 0 0 0 0
0 0 0 0 0 0 0 0 0 0 0 0 0 0 0 0 0 0 0 0 0 0 0 0 0 0 0 0 0 0 0 0 0 0 0 0 0 0 0 0 0 0 0
0 0 0 0 0 0 0 0 0 0 0 0 0 0 0 0 0 0 0 0 0 0 0 0 0 0 0 0 0 0 0 0 0 0 0 0 0 0 0 0 0 0 0
0 0 0 0 0 0 0 0 0 0 0 0 0 0 0 0 0 0 0 0 0 0 0 0 0 0 0 0 0 0 0 0 0 0 0 0 0 0 0 0 0 0 0
0 0 0 0 0 0 0 0 0 0 0 0 0 0 0 0 0 0 0 0 0 0 0 0 0 0 0 0 0 0 0 0 0 0 0 0 0 0 0 0 0 0 0
0 0 0 0 0 0 0 0 0 0 0 0 0 0 0 0 0 0 0 0 0 0 0 0 0 0 0 0 0 0 0 0 0 0 0 0 0 0 0 0 0 0 0
0 0 0 0 0 0 0 0 0 0 0 0 0 0 0 0 0 0 0 0 0 0 0 0 0 0 0 0 0 0 0 0 0 0 0 0 0 0 0 0 0 0 0
0 0 0 0 0 0 0 0 0 0 0 0 0 0 0 0 0 0 0 0 0 0 0 0 0 0 0 0 0 0 0 0 0 0 0 0 0 0 0 0 0 0 0
0 0 0 0 0 0 0 0 0 0 0 0 0 0 0 0 0 0 0 0 0 0 0 0 0 0 0 0 0 0 0 0 0 0 0 0 0 0 0 0 0 0 0
Wind_Speed
6 5 5 5 5 4 5 6 6 5 6 6 6 6 7 7 6 5 5 5 6 6 5 5 6 5 3 3 3 3 3 3 5 3 2 2 2 0 1 1 2 3 5
5 5 6 6 5 5 6 6 6 6 6 6 7 7 8 7 6 6 7 6 6 7 7 6 7 5 5 4 3 4 4 4 4 5 2 2 1 1 1 2 2 3 3
5 5 6 6 6 6 6 6 6 6 7 7 7 8 8 8 8 7 7 8 7 8 8 8 8 6 6 4 4 5 4 4 4 4 3 1 1 1 2 2 3 3 4
5 5 6 7 6 6 6 6 6 6 7 8 8 8 9 9 9 9 8 8 8 8 8 8 8 8 8 7 5 6 5 5 4 4 3 2 2 1 3 3 3 2 3
5 6 7 6 5 5 6 6 6 7 8 8 8 9 9 8 8 9 8 9 8 9 8 8 9 10 12 9 6 6 5 5 4 4 4 2 2 2 3 3 4 4 3
5 6 6 5 5 5 6 6 7 7 8 8 8 9 9 8 10 13 12 9 9 9 9 9 9 11 13 13 13 12 10 7 7 5 4 4 4 3 3 4 5 5 4
5 6 5 5 5 6 6 7 7 8 8 8 8 9 10 11 14 16 16 11 10 10 10 9 8 8 10 9 10 12 12 13 12 8 7 6 5 4 4 6 6 5 4
5 6 5 5 6 6 6 8 8 7 8 8 9 9 10 11 14 14 15 11 10 10 11 11 10 10 9 9 9 9 9 9 10 9 8 8 6 5 5 5 5 5 4
6 6 6 5 6 7 8 8 8 7 8 8 8 9 10 12 13 14 12 8 8 10 10 10 11 11 12 13 11 10 10 9 10 12 11 10 9 8 6 4 6 7 5
7 6 5 5 6 8 9 9 8 7 8 8 9 9 10 11 13 14 11 6 8 8 8 9 13 13 13 13 11 10 11 10 8 8 9 10 9 8 10 8 7 7 5
6 5 5 6 7 8 8 8 8 8 8 8 9 9 9 10 12 13 11 6 7 7 7 7 7 11 14 14 13 11 12 10 8 8 7 7 6 6 7 7 7 7 7
5 5 6 6 7 7 7 8 8 7 8 8 8 9 7 7 8 10 11 9 8 7 8 7 7 10 12 12 11 11 13 11 7 7 7 7 7 7 6 7 8 7 5
5 6 6 7 7 7 7 8 7 6 6 7 7 7 7 6 6 10 11 10 9 7 7 10 10 11 10 9 11 13 11 9 8 8 8 8 7 7 6 5 7 6 6
6 6 6 6 7 7 6 6 6 6 6 7 7 7 7 7 6 5 4 4 5 5 5 7 8 8 6 6 6 7 8 7 8 8 8 7 6 6 7 6 6 6 5
6 6 6 6 7 7 7 6 7 8 8 8 8 8 8 8 7 6 5 4 3 3 3 3 3 3 3 3 4 5 6 7 8 7 7 7 7 7 6 6 6 6 6
5 5 5 5 5 6 7 8 8 11 13 14 15 13 9 12 12 10 9 9 8 6 3 3 4 4 4 4 4 5 6 7 7 7 7 7 7 7 7 6 6 7 7
6 6 5 5 6 6 6 7 9 9 9 11 11 11 12 12 12 11 9 7 6 5 4 5 5 5 4 4 4 5 5 6 7 7 7 7 7 7 7 7 7 7 7
6 7 7 5 6 6 6 6 6 8 9 8 8 9 11 11 9 8 7 4 4 5 5 6 6 5 5 4 4 5 5 5 5 6 6 6 6 6 7 8 8 9 8
6 5 5 5 6 6 6 6 6 7 7 8 8 8 7 6 6 6 5 5 6 6 6 6 6 6 5 5 5 5 5 5 6 6 6 6 6 6 7 7 8 10 9
5 9 8 5 5 6 5 6 6 6 7 7 7 7 5 3 3 4 5 6 7 7 7 7 6 6 6 5 5 5 5 5 6 6 6 6 5 6 7 8 8 9 8
5 5 8 6 5 5 5 6 6 6 6 7 7 7 8 5 6 6 6 6 7 7 7 7 7 6 6 6 6 6 7 6 6 7 7 7 7 7 6 6 7 7 8
4 4 4 5 5 5 5 6 6 6 7 8 7 7 8 5 5 6 6 6 6 7 7 6 6 6 6 6 7 7 7 7 7 7 7 7 7 8 7 7 7 7 8
4 4 4 4 4 5 6 5 5 5 6 6 7 7 6 6 6 6 6 6 5 5 5 6 6 6 6 7 7 7 7 8 8 8 8 8 8 8 8 8 9 9 9
4 4 4 4 4 4 5 5 5 6 6 6 6 6 6 7 6 7 6 6 5 5 5 5 6 9 10 8 6 7 7 7 7 8 11 9 9 8 8 8 9 10 10
4 4 3 3 3 4 4 5 5 6 6 6 6 6 7 7 7 7 6 6 6 5 5 5 5 6 9 10 9 8 8 10 8 8 9 8 10 10 10 10 9 10 10
4 3 2 2 2 3 4 5 5 6 6 6 6 6 7 7 7 7 6 6 6 5 5 5 5 6 6 6 8 8 8 9 9 9 8 8 9 9 11 9 12 11 12
Wind_Direction
257 256 259 259 256 257 260 265 268 274 276 277 279 282 282 278 270 258 257 261 261 269 273 271 274 273 267 265 260 254 251 249 264 283 276 298 307 41 94 141 148 161 176
258 261 260 263 263 263 265 269 272 274 276 276 278 281 281 278 270 262 266 267 257 261 264 265 269 273 267 260 255 253 251 244 252 274 283 294 315 145 128 120 105 110 122
261 262 266 265 261 261 265 272 275 274 277 279 277 277 279 279 276 270 265 265 259 255 255 254 259 261 264 258 251 253 253 251 241 257 275 279 282 150 129 114 106 101 101
261 260 262 262 259 260 266 270 271 272 274 276 275 274 275 276 275 274 271 268 264 259 252 247 248 247 251 254 251 248 248 249 245 248 257 257 251 177 149 150 142 126 115
261 262 261 264 263 263 266 268 270 271 274 273 277 277 275 273 268 264 263 266 264 263 257 247 243 245 246 243 239 236 233 236 237 239 243 239 234 195 183 160 157 139 110
258 262 267 269 267 265 266 270 273 274 274 275 275 276 276 272 270 270 271 269 266 265 265 257 249 254 256 254 252 244 228 226 228 228 231 229 230 217 189 167 156 159 158
261 266 269 268 269 269 273 277 276 276 276 278 276 274 273 271 269 271 273 271 264 262 261 260 258 252 243 241 248 255 246 235 227 223 230 229 221 215 197 183 176 171 154
265 268 269 270 273 276 277 277 277 276 276 277 278 277 276 275 271 269 273 273 265 261 258 255 254 255 247 238 241 246 245 242 235 231 232 234 228 215 207 197 169 140 112
263 263 264 267 274 280 280 279 278 277 277 275 275 276 275 278 275 271 270 270 264 264 261 257 253 253 245 234 235 241 245 246 242 234 229 231 226 214 196 178 168 163 154
256 256 260 264 269 275 277 279 277 274 276 281 280 276 272 275 276 273 270 260 261 264 264 259 254 251 246 234 232 233 238 239 235 232 226 228 226 217 202 198 186 179 156
249 255 261 264 269 273 275 274 278 279 281 281 282 281 275 271 275 274 270 249 247 258 263 262 256 249 246 239 230 230 231 227 225 224 222 218 212 209 205 201 194 188 173
248 257 265 270 274 279 277 281 280 278 282 284 284 287 280 271 267 273 272 259 245 248 257 260 259 254 250 245 233 227 224 219 222 218 218 215 209 206 205 198 197 193 176
248 260 270 278 277 276 276 280 286 280 277 281 282 285 287 282 270 265 269 269 263 249 252 256 260 260 257 249 235 224 215 213 212 214 216 215 209 203 193 189 190 178 155
246 262 273 282 287 285 277 272 276 278 279 281 282 282 285 285 279 270 263 262 269 265 263 267 265 260 249 241 234 221 213 209 209 213 213 210 200 196 192 183 184 174 160
246 262 275 277 281 288 285 273 271 266 257 264 276 275 279 282 275 258 253 255 252 258 274 262 251 246 240 234 227 217 207 205 211 214 210 204 199 194 190 184 179 173 173
246 261 267 275 281 283 292 298 275 262 268 261 255 255 262 257 267 271 262 259 261 258 248 249 256 249 244 242 235 222 211 208 209 207 203 200 197 192 186 184 183 185 178
235 254 265 272 279 286 291 298 307 306 291 279 273 270 260 265 265 262 259 260 259 238 237 247 252 250 247 243 232 223 216 211 203 199 196 195 196 191 184 184 187 188 182
235 254 262 266 274 279 283 286 289 297 307 308 302 293 288 279 269 257 250 250 247 223 233 244 249 247 241 240 231 223 216 206 197 194 195 195 193 191 187 185 188 188 181
230 247 258 266 270 274 279 284 285 287 289 294 301 303 300 290 271 249 222 226 242 244 237 239 243 244 240 236 229 216 208 202 195 189 194 194 191 193 193 190 187 183 180
231 252 263 268 276 281 284 288 290 292 294 296 297 300 307 295 276 253 223 229 239 246 244 241 240 238 235 233 227 214 206 204 201 196 195 196 197 198 195 189 184 179 181
227 251 268 273 271 278 285 289 290 291 293 295 294 294 291 282 275 270 257 241 238 241 239 236 236 234 230 225 221 214 209 206 205 201 196 195 195 197 195 188 182 176 171
219 236 250 262 271 277 285 288 288 291 295 297 301 305 303 286 276 273 269 261 251 244 240 236 235 231 226 221 216 211 209 204 200 200 196 191 193 193 188 183 178 174 171
212 234 250 262 272 284 290 292 294 296 298 300 303 307 311 304 294 287 282 276 268 257 245 236 236 236 229 225 219 212 209 206 198 190 188 186 187 187 183 181 179 174 175
203 227 245 261 276 286 295 299 302 304 305 307 308 308 310 310 305 299 295 288 280 270 258 247 242 239 234 225 219 215 215 211 199 191 187 183 183 182 181 181 180 179 178
197 216 235 256 277 290 299 304 307 310 312 312 313 315 316 315 315 313 310 304 298 290 284 270 256 249 242 233 224 217 210 202 198 189 185 185 182 180 179 180 179 178 176
194 207 227 254 279 293 299 305 309 315 315 316 317 319 320 320 322 324 323 321 316 307 302 293 280 271 258 240 228 216 201 195 191 190 187 184 183 182 180 179 180 180 178